Weather History for KCQX - September, 2013

Change the Weather History Date:

Monday, September 30, 2013

  Actual Average Record
Temperature  
Mean Temperature 60 °F -  
Max Temperature 66 °F 63 °F 75 °F (2010)
Min Temperature 57 °F 49 °F 37 °F (2000)
Degree Days  
Heating Degree Days 4    
Growing Degree Days 10 (Base 50)    
Moisture  
Dew Point 54 °F    
Average Humidity 81    
Maximum Humidity 94    
Minimum Humidity 64    
Precipitation  
Precipitation 0.01 in - - ()
Sea Level Pressure  
Sea Level Pressure 30.03 in    
Wind  
Wind Speed 4 mph (NNE)    
Max Wind Speed 12 mph    
Max Gust Speed 18 mph    
Visibility 10 miles    
Events      
Averages and records for this station are not official NWS values.
T = Trace of Precipitation, MM = Missing Value Source: NWS Daily Summary

Daily Weather History Graph

Daily Weather History Graph

Search for Another Location

Airport or City:

Trip Planner

Search our weather history database for the weather conditions in past years. The results will help you decide how hot, cold, wet, or windy it might be!

Date:

Astronomy

Sep. 30, 2013 Rise Set
Actual Time 6:35 AM EDT 6:23 PM EDT
Civil Twilight 6:08 AM EDT 6:50 PM EDT
Nautical Twilight 5:36 AM EDT 7:22 PM EDT
Astronomical Twilight 5:03 AM EDT 7:55 PM EDT
Moon 2:06 AM EDT (9/30) 3:54 PM EDT (9/30)
Length of Visible Light 12h 42m
Length of Day
11h 47m
Waning Crescent, 19% of the Moon is Illuminated
Sep 30
Waning Crescent
Oct 4
New
Oct 11
First Quarter
Oct 18
Full
Oct 26
Last Quarter

Hourly Weather History & Observations

Time (EDT) Temp. Dew Point Humidity Pressure Visibility Wind Dir Wind Speed Gust Speed Precip Events Conditions
12:52 AM 57.9 °F 55.0 °F 90% 30.09 in 10.0 mi Calm Calm - N/A   Mostly Cloudy
1:52 AM 59.0 °F 55.9 °F 90% 30.09 in 10.0 mi NNE 4.6 mph - N/A   Mostly Cloudy
2:52 AM 59.0 °F 55.9 °F 90% 30.09 in 10.0 mi NE 4.6 mph - N/A   Mostly Cloudy
3:52 AM 57.0 °F 55.0 °F 93% 30.09 in 10.0 mi NNE 3.5 mph - 0.01 in   Clear
4:52 AM 57.9 °F 55.0 °F 90% 30.07 in 10.0 mi NNE 4.6 mph - N/A   Clear
5:43 AM 57.2 °F 55.4 °F 94% 30.08 in 10.0 mi NNE 3.5 mph - N/A   Partly Cloudy
5:52 AM 57.0 °F 54.0 °F 89% 30.09 in 10.0 mi North 4.6 mph - N/A   Partly Cloudy
6:52 AM 57.0 °F 55.0 °F 93% 30.08 in 10.0 mi Calm Calm - N/A   Clear
7:52 AM 60.1 °F 55.9 °F 86% 30.09 in 10.0 mi Variable 4.6 mph - N/A   Clear
8:20 AM 60.8 °F 57.2 °F 88% 30.06 in 10.0 mi NNE 8.1 mph - N/A   Partly Cloudy
8:52 AM 62.1 °F 55.9 °F 80% 30.07 in 10.0 mi NE 8.1 mph - N/A   Partly Cloudy
9:20 AM 62.6 °F 55.4 °F 77% 30.07 in 10.0 mi NE 9.2 mph - N/A   Partly Cloudy
9:52 AM 63.0 °F 55.9 °F 78% 30.06 in 10.0 mi NE 8.1 mph - N/A   Partly Cloudy
10:52 AM 64.9 °F 53.1 °F 65% 30.05 in 10.0 mi NE 11.5 mph - N/A   Clear
11:52 AM 64.9 °F 53.1 °F 65% 30.04 in 10.0 mi NE 11.5 mph 18.4 mph N/A   Partly Cloudy
12:52 PM 64.0 °F 54.0 °F 70% 30.03 in 10.0 mi NE 9.2 mph - N/A   Overcast
1:52 PM 64.0 °F 54.0 °F 70% 30.01 in 10.0 mi NNE 8.1 mph - N/A   Overcast
2:47 PM 64.4 °F 51.8 °F 64% 30.00 in 10.0 mi NNE 8.1 mph - N/A   Overcast
2:52 PM 64.0 °F 52.0 °F 65% 30.00 in 10.0 mi Variable 4.6 mph - N/A   Overcast
3:52 PM 64.0 °F 53.1 °F 67% 29.99 in 10.0 mi Variable 5.8 mph - N/A   Overcast
4:52 PM 63.0 °F 53.1 °F 70% 29.99 in 10.0 mi NE 8.1 mph - N/A   Overcast
5:52 PM 61.0 °F 53.1 °F 75% 29.99 in 10.0 mi Variable 5.8 mph - N/A   Overcast
6:20 PM 60.8 °F 53.6 °F 77% 29.98 in 10.0 mi NNE 5.8 mph - N/A   Overcast
6:52 PM 59.0 °F 53.1 °F 81% 29.98 in 10.0 mi North 3.5 mph - N/A   Partly Cloudy
7:52 PM 57.9 °F 53.1 °F 84% 29.98 in 10.0 mi Variable 3.5 mph - N/A   Clear
8:52 PM 57.9 °F 54.0 °F 87% 29.98 in 10.0 mi Variable 3.5 mph - N/A   Clear
9:52 PM 57.0 °F 53.1 °F 87% 29.97 in 10.0 mi Calm Calm - N/A   Clear
10:52 PM 57.0 °F 53.1 °F 87% 29.97 in 10.0 mi Calm Calm - N/A   Clear
11:52 PM 57.0 °F 53.1 °F 87% 29.96 in 10.0 mi Calm Calm - N/A   Clear